Content
SEND FEEDBACK

Daily
Averages
Monthly
Summary
United States of America

PUT IN BAY, OHIO


Home > North America > United States > Ohio
Elevation: 561 feet     Latitude: 41 39N     Longitude: 082 48W

WEATHER
 
SELECT A DAY
Number of Records: 125,303;   Date Range: 12/10/00 - 11/27/14
 
SHARE

PRINT THIS DATA

[ ← Previous Day ]
WEATHER ALMANAC - JUNE 24, 2013
[ Next Day → ]
[ °C ]   °F
We're sorry. There is no daily almanac available for Put In Bay, Ohio on June 24, 2013.
WEATHER BY HOUR - JUNE 24, 2013
[ °C ]   °F
Local TimeTemperatureDewpointHumidityBarometerVisibilityWind DirectionWind SpeedGust SpeedPrecipitationEventsConditions
1:00 AM70.7 °F65.7 °F84 %29.97 inSE (130°)1.2 mph
2:00 AM72.0 °F66.0 °F77 %30.02 inSW (220°)10.4 mph
2:00 AM72.3 °F66.2 °F81 %30.02 inSW (220°)10.4 mph
3:00 AM70.9 °F66.2 °F85 %30.03 inWSW (240°)4.6 mph
4:00 AM70.3 °F66.4 °F87 %30.02 inWSW (250°)5.8 mph
5:00 AM69.6 °F66.0 °F88 %30.03 inSSW (210°)4.6 mph
6:00 AM69.3 °F66.2 °F90 %30.03 inSW (220°)4.6 mph
7:00 AM70.5 °F66.7 °F88 %30.03 inSW (220°)6.9 mph
8:00 AM72.0 °F67.0 °F79 %30.04 inSW (220°)6.9 mph
8:00 AM72.1 °F66.7 °F83 %30.04 inSW (220°)6.9 mph
9:00 AM73.8 °F67.1 °F80 %30.05 inSW (230°)9.2 mph
10:00 AM76.1 °F67.6 °F75 %30.06 inWSW (240°)10.4 mph
11:00 AM77.7 °F68.0 °F72 %30.05 inSW (230°)9.2 mph
12:00 PM80.6 °F67.3 °F64 %30.05 inWSW (240°)12.7 mph18.4 mph
1:00 PM83.1 °F69.1 °F62 %30.03 inSW (230°)8.1 mph
2:00 PM85.0 °F68.0 °F47 %30.01 inSW (230°)9.2 mph
2:00 PM84.6 °F68.0 °F57 %30.01 inSW (230°)9.2 mph
3:00 PM85.1 °F66.7 °F54 %29.98 inSW (230°)8.1 mph
4:00 PM83.8 °F67.1 °F57 %29.96 inSSW (200°)10.4 mph
5:00 PM83.3 °F68.9 °F62 %29.94 inSW (220°)6.9 mph
6:00 PM83.8 °F68.5 °F60 %29.91 inSW (220°)8.1 mph
7:00 PM82.6 °F67.8 °F61 %29.91 inSW (220°)4.6 mph
8:00 PM82.0 °F68.0 °F54 %29.92 inWSW (240°)5.8 mph
8:00 PM81.5 °F68.2 °F64 %29.92 inWSW (240°)5.8 mph
9:00 PM79.5 °F67.8 °F67 %29.91 inSW (230°)4.6 mph
10:00 PM77.9 °F68.9 °F74 %29.91 inSSW (210°)4.6 mph
11:00 PM79.0 °F68.4 °F70 %29.91 inSW (220°)8.1 mph
Hourly data recorded from CXHA, located miles away from Put In Bay, Ohio







STORIES FROM OUR PARTNERS